Miscellaneous Local Product
Issued by NWS Hastings, NE

Home | Current Version | Previous Version | Text Only | Print | Product List | Glossary Off
Versions: 1 2 3 4 5 6 7 8 9 10 11 12 13 14 15 16 17 18 19 20 21 22 23 24 25 26 27 28 29 30 31 32 33 34 35 36 37 38 39 40 41 42 43 44 45 46 47 48 49 50

000
AXUS43 KGID 152202
MISGRI

GID CWA HOURLY WEATHER ROUNDUP
NATIONAL WEATHER SERVICE HASTINGS NE
500 PM CDT MON SEP 15 2014

NOTE: "FAIR" INDICATES FEW OR NO CLOUDS BELOW 12,000 FEET WITH NO
SIGNIFICANT WEATHER AND/OR OBSTRUCTIONS TO VISIBILITY.

...SOUTH CENTRAL NEBRASKA...

CITY           SKY/WX    TMP DP  RH WIND       PRES   REMARKS
GRAND ISLAND   SUNNY     66  42  41 NE9       30.25F
HASTINGS       SUNNY     65  41  41 NE10      30.25S
KEARNEY        SUNNY     64  43  45 N7        30.26S
ORD            SUNNY     64  38  38 N7        30.24F
YORK           MOSUNNY   63  46  55 NE9G17    30.24F
AURORA         SUNNY     64  40  41 NE8       30.25S
LEXINGTON      SUNNY     65  44  45 E7        30.26S
HOLDREGE       SUNNY     64  41  42 NE10      30.25S
HEBRON         SUNNY     68  41  37 NE13      30.23R

...NEBRASKA PANHANDLE...

CITY           SKY/WX    TMP DP  RH WIND       PRES   REMARKS
CHADRON        SUNNY     71  43  36 S13       30.18F
ALLIANCE       SUNNY     67  43  41 S12G21    30.23F
SCOTTSBLUFF    SUNNY     72  45  37 SE18      30.20F
SIDNEY         SUNNY     68  44  42 S14G22    30.26F

...WESTERN AND NORTH CENTRAL NEBRASKA...

CITY           SKY/WX    TMP DP  RH WIND       PRES   REMARKS
VALENTINE      SUNNY     65  34  31 VRB5      30.24F
AINSWORTH      SUNNY     61  36  39 E5        30.25F
ONEILL         SUNNY     62  41  45 CALM      30.26S
BROKEN BOW     SUNNY     66  38  35 NE3       30.25F
IMPERIAL       SUNNY     67  42  40 SE6       30.27F
NORTH PLATTE   SUNNY     66  41  40 VRB5      30.26F
MCCOOK         SUNNY     68  42  38 E5        30.26F

...EASTERN NEBRASKA...

CITY           SKY/WX    TMP DP  RH WIND       PRES   REMARKS
NORFOLK        SUNNY     63  41  44 N9        30.25S
SO SIOUX CITY  MOSUNNY   64  42  44 N12       30.24F
TEKAMAH        PTSUNNY   65  44  46 N12G22    30.23F
OMAHA EPPLEY   PTSUNNY   62  45  53 NE10      30.24S
OFFUTT AFB     PTSUNNY   63  48  58 NE8       30.23S
MILLARD        MOSUNNY   63  45  52 NE7       30.23S
LINCOLN        MOSUNNY   65  45  48 N12       30.24S
NEBRASKA CITY  SUNNY     65  41  41 N12       30.22R
BEATRICE       SUNNY     67  47  48 N14       30.22R
FALLS CITY     PTSUNNY   66  51  58 NE8G20    30.19S

...NORTHERN KANSAS...

CITY           SKY/WX    TMP DP  RH WIND       PRES   REMARKS
GOODLAND       SUNNY     67  49  52 E5        30.28F
HILL CITY      SUNNY     73  47  39 NE13      30.24S
NORTON         CLEAR     70  36  28 N10       30.24S
PHILLIPSBURG   SUNNY     72  41  33 NE10      30.24R
SMITH CENTER   SUNNY     70  43  37 N14       30.23S
BELOIT         SUNNY     72  46  40 NE9G17    30.20S
HAYS           SUNNY     70  54  56 N12G18    30.22S
RUSSELL        SUNNY     72  53  51 NE15      30.19F
CONCORDIA      SUNNY     71  51  49 N18       30.21R
SALINA         CLOUDY    72  55  55 N13       30.18S
TOPEKA         CLOUDY    70  59  68 N12       30.16S



USA.gov is the U.S. government's official web portal to all federal, state and local government web resources and services.